Location: Croissy-Beaubourg
(48.8283°N, 2.6696°E)
Time: 00:44:45
(UTC+00:00)

USA 215 - Pass Details

Date: 27 May 2022
Orbit: 1099 x 1108 km, 123.0° (Epoch: 10 June)

Event Time Altitude Azimuth Distance (km) Brightness Sun altitude
Rises 21:10:00 0° 64° (ENE) 3,928 6.0 -11.6°
Reaches altitude 10° 21:13:44 10° 86° (E) 2,967 5.2 -11.9°
Maximum altitude 21:17:27 16° 121° (ESE) 2,559 4.6 -12.3°
Enters shadow 21:18:30 15° 132° (SE) 2,592 4.6 -12.4°
